This is the latest recevied weather packets stored in our database for station/object N7NMS-13. If no packets are shown the sender has not sent any weather packets the latest 10 day(s).
| Time | Temp. | Humidity | Pressure | Rain* | Wind** | Luminosity | Snow |
|---|---|---|---|---|---|---|---|
| 1777684396 | 9.44° C | 80% | - | 0 mm | - | - | - |
| 1777683796 | 9.44° C | 79% | - | 0 mm | - | - | - |
| 1777683166 | 9.44° C | 78% | - | 0 mm | - | - | - |
| 1777682566 | 9.44° C | 78% | - | 0 mm | - | - | - |
| 1777681966 | 10.56° C | 78% | - | 0 mm | - | - | - |
| 1777681366 | 10.56° C | 76% | - | 0 mm | - | - | - |
| 1777680736 | 10.56° C | 74% | - | 0 mm | - | - | - |
| 1777680106 | 11.11° C | 72% | - | 0 mm | - | - | - |
| 1777679505 | 11.11° C | 70% | - | 0 mm | - | - | - |
| 1777678905 | 11.11° C | 69% | - | 0 mm | - | - | - |
| 1777678305 | 11.67° C | 66% | - | 0 mm | - | - | - |
| 1777677675 | 12.22° C | 61% | - | 0 mm | - | - | - |
| 1777677075 | 12.78° C | 57% | - | 0 mm | - | - | - |
| 1777676446 | 13.33° C | 52% | - | 0 mm | - | - | - |
| 1777675816 | 14.44° C | 48% | - | 0 mm | - | - | - |
| 1777675216 | 15° C | 46% | - | 0 mm | - | - | - |
| 1777674616 | 15.56° C | 45% | - | 0 mm | - | - | - |
| 1777674016 | 15.56° C | 42% | - | 0 mm | - | - | - |
| 1777673416 | 16.11° C | 40% | - | 0 mm | - | - | - |
| 1777672816 | 16.67° C | 38% | - | 0 mm | - | - | - |
| 1777672186 | 16.67° C | 37% | - | 0 mm | - | - | - |
| 1777671586 | 17.22° C | 38% | - | 0 mm | - | - | - |
| 1777670956 | 16.67° C | 38% | - | 0 mm | - | - | - |
| 1777670326 | 16.67° C | 39% | - | 0 mm | - | - | - |
| 1777669696 | 16.11° C | 40% | - | 0 mm | - | - | - |
* Rain latest hour (hover to see other rain measurements)
** Current wind speed in m/s (hover to see current wind gust speed)